FENGYUN 1C DEB

Satellite information

Favourite Embed

Satellite Type and Status

DEBRISIN ORBIT

Key statistics

Satellite FENGYUN 1C DEB at a glance.

Uptime

9664

Days in orbit

Revolutions

≈ 14.2

Per day

Orbit

SSO

Sun Synchronous Orbit

Inclination

99.1

Latest

Satellite identification and parameters

Extended collection of information and parameters for FENGYUN 1C DEB.

Object identification

Identified? True

Debris? True

Object name: FENGYUN 1C DEB

International designator: 1999-025AQL

Object number (NORAD): 30678

Object ID (CCSDS): 30678

Country: PEOPLES REPUBLIC OF CHINA (PRC)

Current information (Y/N): Y

RCS size: SMALL

Orbital parameters

Period: 101.196 minutes

Inclination: 99.0783 deg

SMA: 7193.435 km

Apoapsis: 871.199 km

Periapsis: 759.401 km

RAAN: 254.9704 deg

Eccentricy: 0.00777084

Argument of periapsis: 16.0592 deg

Mean anomaly: 13.8783 deg

Mean motion: 14.22978203 rev/day

Mean motion (dot): 0.00010949 rev/day2

B* drag term: 0.0047284589 1/REarth

Two-line elements (TLE)

Creation date: Oct. 23, 2025, 2:46 a.m.

Reference frame: TEME

Reference center: EARTH

Epoch: Oct. 22, 2025, 8 p.m. UTC

TLE line 0: 0 FENGYUN 1C DEB

TLE line 1: 1 30678U 99025AQL 25295.83385146 .00010949 00000-0 47285-2 0 9991

TLE line 2: 2 30678 99.0783 254.9704 0077708 16.0592 13.8783 14.22978203951514

Live tracking on map

Real-time ground track for satellite FENGYUN 1C DEB.

In-orbit conjunctions

A list of the most updated potential collisions computed for object FENGYUN 1C DEB.

Target Orbit TCA Probability of collision Miss distance Type
SL-12 R/B(AUX MOTOR) LEO 2025-08-15 02:03:39 0.001090117 94.0 (m) ROCKET BODY
SL-8 R/B LEO 2025-07-25 11:08:22 0.0001689238 32.0 (m) ROCKET BODY

Associated space launch

Chinese polar orbiting meteorological satellite

FENGYUN 1C DEB was lifted into orbit during the mission ‘Long March 4B | Feng Yun 1C’, on board a Long March 4B space rocket.

The launch took place on May 10, 1999, 1:33 a.m. from Launch Complex 7.

For more information about the launch, click the button.

Launch to space Long March 4B | Feng Yun 1C
Long March 4B | Feng Yun 1C

Agency: N/A

Status: Launch Successful

Launch date: May 10, 1999, 1:33 a.m. UTC

Rocket: Long March 4B

Launch pad: Launch Complex 7

Location: Taiyuan Satellite Launch Center, People's Republic of China

...

Latest news about this satellite

There are no fresh news available about this satellite. Check back as we update our databases every day.


Newsletter sign-up

Weekly statistics, charts and insights to help you stay on top of the space industry.